Weather History for Fairfield, IL

Change the Weather History Date:

Saturday, March 8, 2014

  Actual Average (KMVN) Record (KMVN)
Temperature  
Mean Temperature 40 °F -  
Max Temperature 48 °F 47 °F 73 °F (2009)
Min Temperature 32 °F 29 °F 19 °F (2008)
Degree Days  
Heating Degree Days 24    
Moisture  
Dew Point 34 °F    
Average Humidity 81    
Maximum Humidity 93    
Minimum Humidity 66    
Precipitation  
Precipitation 0.00 in - - ()
Sea Level Pressure  
Sea Level Pressure 30.12 in    
Wind  
Wind Speed 4 mph (NW)    
Max Wind Speed 13 mph    
Max Gust Speed 18 mph    
Visibility 8 miles    
Events      
Averages and records for this station are not official NWS values.
T = Trace of Precipitation, MM = Missing Value Source: NWS Daily Summary

Daily Weather History Graph

Daily Weather History Graph

Search for Another Location

Airport:

Trip Planner

Search our weather history database for the weather conditions in past years. The results will help you decide how hot, cold, wet, or windy it might be!

Date:

Astronomy

Mar. 08, 2014 Rise Set
Actual Time 6:15 AM CST 5:53 PM CST
Civil Twilight 5:49 AM CST 6:20 PM CST
Nautical Twilight 5:18 AM CST 6:51 PM CST
Astronomical Twilight 4:47 AM CST 7:21 PM CST
Moon 11:01 AM CST (3/8) 12:46 AM CST (3/8)
Length of Visible Light 12h 31m
Length of Day
11h 38m
First Quarter, 52% of the Moon is Illuminated
Mar 8
First Quarter
Mar 16
Full
Mar 23
Last Quarter
Mar 30
New
Apr 7
First Quarter

Hourly Weather History & Observations

Time (CST) Temp. Windchill Dew Point Humidity Pressure Visibility Wind Dir Wind Speed Gust Speed Precip Events Conditions
12:15 AM 39.2 °F 35.9 °F 33.8 °F 81% 30.00 in 10.0 mi SSW 4.6 mph - N/A   Clear
12:35 AM 37.4 °F 34.9 °F 32.0 °F 81% 30.00 in 10.0 mi South 3.5 mph - N/A   Clear
12:55 AM 39.2 °F 35.9 °F 33.8 °F 81% 30.00 in 10.0 mi SSW 4.6 mph - N/A   Clear
1:15 AM 39.2 °F 35.9 °F 32.0 °F 75% 30.00 in 10.0 mi SSW 4.6 mph - N/A   Clear
1:35 AM 39.2 °F 37.0 °F 32.0 °F 75% 30.00 in 10.0 mi SSW 3.5 mph - N/A   Clear
1:55 AM 35.6 °F - 30.2 °F 81% 30.01 in 10.0 mi Calm Calm - N/A   Clear
2:15 AM 35.6 °F 32.8 °F 30.2 °F 81% 30.01 in 10.0 mi SW 3.5 mph - N/A   Clear
2:35 AM 35.6 °F - 30.2 °F 81% 30.01 in 10.0 mi Calm Calm - N/A   Clear
2:55 AM 33.8 °F - 30.2 °F 87% 30.00 in 7.0 mi Calm Calm - N/A   Clear
3:15 AM 33.8 °F - 30.2 °F 87% 29.99 in 7.0 mi Calm Calm - N/A   Clear
3:35 AM 33.8 °F 30.8 °F 30.2 °F 87% 30.00 in 7.0 mi SSW 3.5 mph - N/A   Clear
3:55 AM 35.6 °F 32.8 °F 32.0 °F 87% 30.01 in 10.0 mi SSW 3.5 mph - N/A   Clear
4:15 AM 35.6 °F 31.7 °F 33.8 °F 93% 30.02 in 10.0 mi SSW 4.6 mph - N/A   Clear
4:35 AM 35.6 °F 31.7 °F 33.8 °F 93% 30.02 in 10.0 mi SSW 4.6 mph - N/A   Clear
4:55 AM 37.4 °F 34.9 °F 33.8 °F 87% 30.03 in 10.0 mi SW 3.5 mph - N/A   Clear
5:15 AM 37.4 °F - 33.8 °F 87% 30.03 in 10.0 mi Calm Calm - N/A   Scattered Clouds
5:35 AM 37.4 °F - 33.8 °F 87% 30.03 in 10.0 mi Calm Calm - N/A   Mostly Cloudy
5:55 AM 35.6 °F - 33.8 °F 93% 30.03 in 7.0 mi Calm Calm - N/A   Scattered Clouds
6:15 AM 35.6 °F - 33.8 °F 93% 30.04 in 7.0 mi Calm Calm - N/A   Clear
6:35 AM 37.4 °F - 33.8 °F 87% 30.04 in 7.0 mi Calm Calm - N/A   Clear
6:55 AM 37.4 °F - 33.8 °F 87% 30.04 in 7.0 mi Calm Calm - N/A   Clear
7:15 AM 37.4 °F - 33.8 °F 87% 30.04 in 7.0 mi Calm Calm - N/A   Clear
7:35 AM 37.4 °F - 33.8 °F 87% 30.05 in 5.0 mi Calm Calm - N/A   Clear
7:55 AM 39.2 °F - 35.6 °F 87% 30.05 in 7.0 mi Calm Calm - N/A   Clear
8:15 AM 42.8 °F - 37.4 °F 81% 30.05 in 7.0 mi Calm Calm - N/A   Clear
8:35 AM 42.8 °F - 37.4 °F 81% 30.05 in 7.0 mi Calm Calm - N/A   Clear
8:55 AM 44.6 °F 43.1 °F 37.4 °F 76% 30.06 in 10.0 mi West 3.5 mph - N/A   Clear
9:15 AM 44.6 °F 41.4 °F 37.4 °F 76% 30.07 in 10.0 mi West 5.8 mph - N/A   Clear
9:35 AM 44.6 °F 43.1 °F 37.4 °F 76% 30.07 in 10.0 mi West 3.5 mph - N/A   Clear
9:55 AM 46.4 °F - 37.4 °F 71% 30.07 in 10.0 mi Calm Calm - N/A   Clear
10:15 AM 46.4 °F - 37.4 °F 71% 30.08 in 10.0 mi Calm Calm - N/A   Scattered Clouds
10:35 AM 48.2 °F - 37.4 °F 66% 30.09 in 10.0 mi WNW 5.8 mph - N/A   Clear
10:56 AM 48.2 °F - 37.4 °F 66% 30.10 in 10.0 mi West 5.8 mph - N/A   Scattered Clouds
11:15 AM 48.2 °F - 37.4 °F 66% 30.10 in 10.0 mi WNW 6.9 mph - N/A   Scattered Clouds
11:35 AM 48.2 °F - 37.4 °F 66% 30.11 in 10.0 mi NW 5.8 mph - N/A   Clear
11:55 AM 48.2 °F - 39.2 °F 71% 30.11 in 7.0 mi West 9.2 mph - N/A   Clear
12:15 PM 48.2 °F - 37.4 °F 66% 30.11 in 7.0 mi NW 8.1 mph 16.1 mph N/A   Clear
12:38 PM 46.4 °F 42.9 °F 37.4 °F 71% 30.11 in 7.0 mi NW 6.9 mph - N/A   Mostly Cloudy
12:55 PM 46.4 °F 41.9 °F 37.4 °F 71% 30.11 in 7.0 mi NNW 9.2 mph - N/A   Scattered Clouds
1:15 PM 46.4 °F 41.9 °F 39.2 °F 76% 30.10 in 5.0 mi North 9.2 mph - N/A   Haze
1:35 PM 46.4 °F 42.4 °F 39.2 °F 76% 30.11 in 5.0 mi NNW 8.1 mph - N/A   Haze
1:55 PM 46.4 °F 41.9 °F 39.2 °F 76% 30.10 in 4.0 mi North 9.2 mph 16.1 mph N/A   Haze
2:14 PM 46.4 °F 41.9 °F 39.2 °F 76% 30.10 in 4.0 mi North 9.2 mph 16.1 mph N/A   Haze
2:36 PM 46.4 °F 43.5 °F 37.4 °F 71% 30.12 in 4.0 mi NNW 5.8 mph - N/A   Haze
2:55 PM 46.4 °F 44.3 °F 39.2 °F 76% 30.12 in 4.0 mi NNW 4.6 mph - N/A   Haze
3:15 PM 44.6 °F 39.2 °F 37.4 °F 76% 30.13 in 4.0 mi North 10.4 mph - N/A   Haze
3:35 PM 44.6 °F 41.4 °F 37.4 °F 76% 30.14 in 4.0 mi North 5.8 mph - N/A   Haze
3:55 PM 44.6 °F 40.7 °F 37.4 °F 76% 30.15 in 4.0 mi North 6.9 mph - N/A   Haze
4:15 PM 44.6 °F 40.2 °F 37.4 °F 76% 30.15 in 4.0 mi NNW 8.1 mph - N/A   Haze
4:35 PM 44.6 °F 40.2 °F 37.4 °F 76% 30.16 in 4.0 mi North 8.1 mph - N/A   Haze
4:55 PM 42.8 °F 37.5 °F 37.4 °F 81% 30.17 in 4.0 mi North 9.2 mph - N/A   Haze
5:15 PM 42.8 °F 36.6 °F 37.4 °F 81% 30.19 in 5.0 mi North 11.5 mph - N/A   Haze
5:35 PM 41.0 °F 34.3 °F 35.6 °F 81% 30.20 in 7.0 mi North 11.5 mph 18.4 mph N/A   Mostly Cloudy
5:55 PM 39.2 °F 33.0 °F 35.6 °F 87% 30.21 in 7.0 mi North 9.2 mph - N/A   Scattered Clouds
6:15 PM 39.2 °F 33.0 °F 35.6 °F 87% 30.22 in 7.0 mi North 9.2 mph - N/A   Clear
6:35 PM 39.2 °F 31.6 °F 35.6 °F 87% 30.23 in 7.0 mi North 12.7 mph 17.3 mph N/A   Scattered Clouds
6:55 PM 37.4 °F 30.3 °F 33.8 °F 87% 30.24 in 7.0 mi North 10.4 mph - N/A   Overcast
7:15 PM 37.4 °F 29.3 °F 33.8 °F 87% 30.24 in 7.0 mi North 12.7 mph - N/A   Overcast
7:35 PM 37.4 °F 30.3 °F 33.8 °F 87% 30.25 in 7.0 mi North 10.4 mph - N/A   Overcast
7:55 PM 37.4 °F 30.8 °F 33.8 °F 87% 30.25 in 7.0 mi North 9.2 mph - N/A   Overcast
8:15 PM 37.4 °F 30.3 °F 32.0 °F 81% 30.25 in 7.0 mi North 10.4 mph - N/A   Overcast
8:35 PM 35.6 °F 29.2 °F 32.0 °F 87% 30.26 in 10.0 mi North 8.1 mph - N/A   Scattered Clouds
8:55 PM 35.6 °F 29.9 °F 32.0 °F 87% 30.26 in 10.0 mi North 6.9 mph - N/A   Clear
9:15 PM 35.6 °F 29.9 °F 30.2 °F 81% 30.27 in 10.0 mi North 6.9 mph - N/A   Clear
9:35 PM 35.6 °F 29.9 °F 30.2 °F 81% 30.28 in 10.0 mi North 6.9 mph - N/A   Clear
9:55 PM 35.6 °F 29.9 °F 30.2 °F 81% 30.28 in 10.0 mi North 6.9 mph - N/A   Clear
10:16 PM 35.6 °F 30.7 °F 30.2 °F 81% 30.29 in 10.0 mi North 5.8 mph - N/A   Scattered Clouds
10:35 PM 33.8 °F 27.7 °F 30.2 °F 87% 30.29 in 10.0 mi North 6.9 mph - N/A   Clear
10:55 PM 33.8 °F 27.7 °F 30.2 °F 87% 30.29 in 10.0 mi North 6.9 mph - N/A   Scattered Clouds
11:15 PM 33.8 °F 27.7 °F 28.4 °F 81% 30.29 in 10.0 mi North 6.9 mph - N/A   Clear
11:35 PM 33.8 °F 29.6 °F 28.4 °F 81% 30.29 in 10.0 mi North 4.6 mph - N/A   Clear
11:55 PM 32.0 °F 28.7 °F 28.4 °F 87% 30.29 in 10.0 mi North 3.5 mph - N/A   Clear